Location: Unspecified
(0.0000°N, 0.0000°E)
Time: 17:51:11
(UTC+00:00)

deb Explorer IX - Visible Passes

Search period start: 18 January 2020 00:00
Search period end: 28 January 2020 00:00
Orbit: 548 x 1101 km, 38.8° (Epoch: 17 January)

Date Brightness Start Highest point End Pass type
(mag) Time Alt. Az. Time Alt. Az. Time Alt. Az.
18 Jan ? 20:04:14 10° SW 20:10:34 55° SE 20:10:51 54° SE visible
18 Jan ? 21:52:00 10° W 21:52:13 11° W 21:52:13 11° W visible
19 Jan ? 19:42:00 10° SW 19:48:11 56° SE 19:50:01 43° E visible
19 Jan ? 21:29:45 10° W 21:31:23 17° W 21:31:23 17° W visible
20 Jan ? 19:19:45 10° SW 19:25:47 56° SE 19:29:14 29° ENE visible
20 Jan ? 21:07:32 10° W 21:10:37 23° WNW 21:10:37 23° WNW visible
21 Jan ? 18:57:32 10° SW 19:03:25 57° SE 19:08:30 18° ENE visible
21 Jan ? 20:45:19 10° W 20:49:53 28° NW 20:49:53 28° NW visible
22 Jan ? 18:35:19 10° SW 18:41:02 58° SE 18:47:39 10° ENE visible
22 Jan ? 20:23:07 10° W 20:28:28 27° NW 20:29:10 27° NNW visible
23 Jan ? 05:34:11 10° NNW 05:38:32 22° NE 05:42:25 10° E visible
23 Jan ? 20:00:57 10° W 20:06:05 26° NW 20:08:28 22° N visible
24 Jan ? 05:11:36 10° NNW 05:16:15 23° NE 05:20:22 10° E visible
24 Jan ? 19:38:48 10° W 19:43:43 25° NW 19:47:47 15° N visible
25 Jan ? 04:49:37 12° NNW 04:53:56 25° NE 04:58:18 10° E visible
25 Jan ? 19:16:39 10° W 19:21:21 24° NW 19:26:32 10° NNE visible
26 Jan ? 04:28:54 19° N 04:31:36 26° NE 04:36:12 10° E visible
26 Jan ? 18:54:32 10° W 18:58:59 22° NW 19:03:55 10° NNE visible
27 Jan ? 04:08:11 26° NNE 04:09:15 28° NE 04:14:05 10° E visible
27 Jan ? 18:32:25 10° W 18:36:38 21° NW 18:41:17 10° NNE visible
